User: anonymous   Login
Location: Caltech
(34.1382°N, 118.1253°W)
Time: 14:20:13
(UTC-07:00)
Language:

SL-08 R/B - Orbit

View from above orbital plane
View from above orbital plane
View from above satellite
View from above satellite

Ground track
Ground track

The orbit data is extracted from the following two-line orbital elements,

1 27561U 02054C   16182.43871375  .00000035  00000-0  18592-4 0  9995
2 27561  98.2092 315.1570 0046273 181.8134 178.2903 14.55539549721115
Epoch (UTC): 30 June 2016 10:31:44
Eccentricity: 0.0046273
inclination: 98.2092°
perigee height: 675 km
apogee height: 740 km
right ascension of ascending node: 315.1570°
argument of perigee: 181.8134°
revolutions per day: 14.55539549
mean anomaly at epoch: 178.2903°
orbit number at epoch: 72111

The dashed part of the orbit path shows where the satellite is in the earth's shadow,  

DLR